Goshen, IN

8:40 AM EDT on October 24, 2017 (GMT -0400)
Goshen Municipal

Weather History for KGSH - December, 2014

Change the Weather History Date:

Saturday, December 20, 2014

  Actual Average Record
Temperature  
Mean Temperature 28 °F -  
Max Temperature 30 °F 34 °F 58 °F (1949)
Min Temperature 25 °F 21 °F -7 °F (1981)
Degree Days  
Heating Degree Days 38    
Moisture  
Dew Point 26 °F    
Average Humidity 88    
Maximum Humidity 92    
Minimum Humidity 85    
Precipitation  
Precipitation 0.00 in - - ()
Sea Level Pressure  
Sea Level Pressure 30.29 in    
Wind  
Wind Speed 1 mph (SSW)    
Max Wind Speed 6 mph    
Max Gust Speed -    
Visibility 4 miles    
Events Snow    
Averages and records for this station are not official NWS values.
T = Trace of Precipitation, MM = Missing Value Source: NWS Daily Summary

Daily Weather History Graph

Daily Weather History Graph

Search for Another Location

Airport or City:

Trip Planner

Search our weather history database for the weather conditions in past years. The results will help you decide how hot, cold, wet, or windy it might be!

Date:

Astronomy

Dec. 20, 2014 Rise Set
Actual Time 8:05 AM EST 5:15 PM EST
Civil Twilight 7:34 AM EST 5:47 PM EST
Nautical Twilight 6:59 AM EST 6:22 PM EST
Astronomical Twilight 6:25 AM EST 6:56 PM EST
Moon 6:20 AM EST (12/20) 4:27 PM EST (12/20)
Length of Visible Light 10h 13m
Length of Day
9h 10m
Waning Crescent, 2% of the Moon is Illuminated
Dec 20
Waning Crescent
Dec 21
New
Dec 28
First Quarter
Jan 4
Full
Jan 13
Last Quarter

Hourly Weather History & Observations

Time (EST) Temp. Windchill Dew Point Humidity Pressure Visibility Wind Dir Wind Speed Gust Speed Precip Events Conditions
12:53 AM 26.1 °F - 23.0 °F 88% 30.29 in 6.0 mi Calm Calm - N/A   Overcast
1:53 AM 25.0 °F 20.7 °F 21.9 °F 88% 30.28 in 6.0 mi South 3.5 mph - N/A   Scattered Clouds
2:53 AM 26.1 °F - 23.0 °F 88% 30.30 in 6.0 mi Calm Calm - N/A   Overcast
3:53 AM 25.0 °F 20.7 °F 23.0 °F 92% 30.30 in 5.0 mi SE 3.5 mph - N/A   Mostly Cloudy
4:53 AM 26.1 °F - 23.0 °F 88% 30.30 in 4.0 mi Calm Calm - N/A   Mostly Cloudy
5:53 AM 25.0 °F - 21.9 °F 88% 30.29 in 4.0 mi Calm Calm - N/A   Mostly Cloudy
6:53 AM 25.0 °F - 23.0 °F 92% 30.30 in 4.0 mi Calm Calm - N/A   Overcast
7:53 AM 26.1 °F - 23.0 °F 88% 30.31 in 5.0 mi Calm Calm - N/A   Overcast
8:53 AM 26.1 °F - 24.1 °F 92% 30.31 in 2.5 mi Calm Calm - N/A   Overcast
9:10 AM 27.0 °F 21.6 °F 24.1 °F 89% 30.28 in 3.0 mi ESE 4.6 mph - N/A   Overcast
9:53 AM 27.0 °F 23.0 °F 24.1 °F 89% 30.32 in 3.0 mi ESE 3.5 mph - N/A   Overcast
10:37 AM 28.0 °F - 25.0 °F 88% 30.28 in 3.0 mi Calm Calm - N/A   Overcast
10:53 AM 28.9 °F - 26.1 °F 89% 30.32 in 3.0 mi Calm Calm - N/A   Overcast
11:30 AM 30.0 °F - 26.1 °F 85% 30.28 in 2.5 mi Calm Calm - N/A   Overcast
11:51 AM 30.2 °F - 26.6 °F 86% 30.28 in 1.8 mi Calm Calm - N/A   Overcast
11:53 AM 30.0 °F - 27.0 °F 88% 30.31 in 1.8 mi Calm Calm - N/A   Overcast
12:01 PM 30.0 °F - 27.0 °F 88% 30.28 in 1.5 mi Calm Calm - N/A   Overcast
12:09 PM 30.0 °F - 27.0 °F 88% 30.28 in 1.8 mi Calm Calm - N/A   Overcast
12:46 PM 30.0 °F - 27.0 °F 88% 30.26 in 2.0 mi Calm Calm - N/A   Overcast
12:53 PM 30.9 °F - 28.0 °F 89% 30.30 in 2.0 mi Calm Calm - N/A   Overcast
1:05 PM 30.9 °F - 28.0 °F 89% 30.26 in 2.5 mi Calm Calm - N/A   Overcast
1:45 PM 30.9 °F 27.5 °F 27.0 °F 85% 30.25 in 3.0 mi West 3.5 mph - N/A   Overcast
1:53 PM 30.9 °F 27.5 °F 28.0 °F 89% 30.28 in 3.0 mi West 3.5 mph - N/A   Overcast
2:03 PM 30.9 °F 26.2 °F 27.0 °F 85% 30.25 in 4.0 mi West 4.6 mph - N/A   Overcast
2:29 PM 30.9 °F 27.5 °F 27.0 °F 85% 30.24 in 4.0 mi West 3.5 mph - 0.00 in Snow Light Snow
2:53 PM 30.9 °F - 27.0 °F 85% 30.27 in 5.0 mi Calm Calm - 0.00 in   Overcast
3:53 PM 30.9 °F - 27.0 °F 85% 30.28 in 5.0 mi Calm Calm - 0.00 in   Overcast
4:53 PM 30.9 °F - 27.0 °F 85% 30.30 in 6.0 mi Calm Calm - N/A   Overcast
5:53 PM 30.9 °F - 27.0 °F 85% 30.30 in 7.0 mi Calm Calm - N/A   Overcast
6:53 PM 30.9 °F - 28.0 °F 89% 30.31 in 5.0 mi Calm Calm - N/A   Overcast
7:53 PM 30.9 °F - 28.0 °F 89% 30.32 in 5.0 mi Calm Calm - N/A   Overcast
8:53 PM 30.9 °F - 28.0 °F 89% 30.31 in 4.0 mi Calm Calm - N/A   Overcast
9:13 PM 30.9 °F 27.5 °F 28.0 °F 89% 30.27 in 5.0 mi SSE 3.5 mph - N/A   Overcast
9:53 PM 30.9 °F - 28.0 °F 89% 30.30 in 5.0 mi Calm Calm - N/A   Overcast
10:29 PM 30.9 °F 27.5 °F 28.0 °F 89% 30.26 in 5.0 mi South 3.5 mph - N/A   Overcast
10:36 PM 30.9 °F 26.2 °F 28.0 °F 89% 30.27 in 5.0 mi SSW 4.6 mph - N/A   Overcast
10:44 PM 30.9 °F 26.2 °F 28.0 °F 89% 30.27 in 5.0 mi SSW 4.6 mph - N/A   Overcast
10:53 PM 30.9 °F 26.2 °F 28.0 °F 89% 30.30 in 5.0 mi SSW 4.6 mph - N/A   Overcast
11:00 PM 30.9 °F 26.2 °F 28.0 °F 89% 30.27 in 5.0 mi SSW 4.6 mph - N/A   Overcast
11:31 PM 30.9 °F 25.2 °F 27.0 °F 85% 30.27 in 5.0 mi SW 5.8 mph - N/A   Overcast
11:53 PM 30.9 °F 26.2 °F 27.0 °F 85% 30.30 in 5.0 mi SW 4.6 mph - N/A   Overcast